User: anonymous   Login
Location: Unspecified
(36.1222°N, 0.0000°E)
Time: 00:23:25
(UTC+00:00)
Language:

Envisat - Orbit

View from above orbital plane
View from above orbital plane
View from above satellite
View from above satellite

Ground track
Ground track

The orbit data is extracted from the following two-line orbital elements,

1 27386U 02009A   19171.69668657 -.00000019  00000-0  73414-5 0  9994
2 27386  98.1487 192.6210 0001266  94.6230  18.3494 14.37950984906481
Epoch (UTC): 20 June 2019 16:43:13
Eccentricity: 0.0001266
inclination: 98.1487°
perigee height: 764 km
apogee height: 766 km
right ascension of ascending node: 192.6210°
argument of perigee: 94.6230°
revolutions per day: 14.37950984
mean anomaly at epoch: 18.3494°
orbit number at epoch: 90648

The dashed part of the orbit path shows where the satellite is in the earth's shadow,  

DLR